Regional Weather Roundup
Issued by NWS

Home | Current Version | Previous Version | Graphics & Text | Print | Product List | Glossary On
Versions: 1 2 3 4 5 6 7 8 9 10 11 12 13 14 15 16 17 18 19 20 21 22 23 24 25 26 27 28 29 30 31 32 33 34 35 36 37 38 39 40 41 42 43 44 45 46 47 48
000
ASUS43 KDMX 092307
RWRIA

WEATHER ROUNDUP FOR IOWA
NATIONAL WEATHER SERVICE DES MOINES IA
600 PM CDT WED JUL 09 2014

NOTE: "FAIR" INDICATES FEW OR NO CLOUDS BELOW 12,000 FEET WITH NO
SIGNIFICANT WEATHER AND/OR OBSTRUCTIONS TO VISIBILITY.

* - THESE STATIONS ARE NOT NWS STATIONS...THUS NOT UNDER NWS
QUALITY CONTROL.  THEY ALSO DO NOT REPORT WEATHER SUCH
AS PRECIPITATION OR FOG.

IAZ001>003-012>014-020>022-031>034-043>046-100000-
   NORTHWEST IOWA

CITY           SKY/WX    TMP DP  RH WIND       PRES   REMARKS
CARROLL *      SUNNY     77  63  61 SW8       30.02F
CHEROKEE *     SUNNY     79  59  50 SW7       30.00F HX  80
DENISON *      SUNNY     79  61  53 S3        30.01F HX  80
LE MARS *      SUNNY     81  61  50 CALM      30.00F HX  81
ORANGE CITY *  SUNNY     81  57  44 W5        30.01F HX  81
SHELDON *      SUNNY     79  59  50 SW8       30.00S HX  80
SIOUX CITY     MOSUNNY   82  61  48 S7        29.99F HX  83
SPENCER        MOSUNNY   79  58  48 W7        30.01S HX  80
STORM LAKE *   SUNNY     79  61  53 W8        30.02F HX  80
$$

IAZ055>058-069>071-079>083-090>094-100000-
   SOUTHWEST IOWA

CITY           SKY/WX    TMP DP  RH WIND       PRES   REMARKS
ATLANTIC *     SUNNY     79  61  53 S6        30.02F HX  80
AUDUBON *      SUNNY     82  63  51 CALM      30.04F HX  83
CLARINDA *     SUNNY     79  66  65 CALM      30.04F HX  81
COUNCIL BLFS * SUNNY     81  61  50 VRB6      30.02R HX  81
CRESTON *      SUNNY     77  59  53 W3        30.05F
HARLAN  *      MOSUNNY   79  61  53 CALM      30.06S HX  80
LAMONI         SUNNY     79  58  48 NW3       30.05F HX  80
RED OAK *      SUNNY     79  63  57 S5        30.02F HX  80
SHENANDOAH *   SUNNY     79  61  53 E5        30.03S HX  80
$$

IAZ047>049-059>061-072>074-084-100000-
   CENTRAL IOWA

CITY           SKY/WX    TMP DP  RH WIND       PRES   REMARKS
AMES           SUNNY     78  58  49 SW6       30.02F
ANKENY *       SUNNY     79  57  47 VRB5      30.02F HX  80
CHARITON *     SUNNY     79  57  47 NW7       30.05S HX  80
DES MOINES     MOSUNNY   81  55  40 NW9       30.02F HX  81
GRINNELL*      SUNNY     77  55  47 W3        30.04S
KNOXVILLE *    SUNNY     77  55  47 VRB5      30.02F
MARSHALLTOWN   MOSUNNY   77  57  50 CALM      30.02F
PELLA *        SUNNY     81  57  44 W5        30.04F HX  81
PERRY *          N/A     79  59  50 W7        30.03F HX  80
$$

IAZ004>006-015-016-023>025-035-036-100000-
   NORTH CENTRAL IOWA

CITY           SKY/WX    TMP DP  RH WIND       PRES   REMARKS
ALGONA *       PTSUNNY   79  57  47 N5        30.01F HX  80
CLARION *      LGT RAIN  75  59  57 SW5       30.01F
ESTHERVILLE    PTSUNNY   77  54  44 N8        30.01S
FORT DODGE *   SUNNY     79  61  53 W6        30.01F HX  80
MASON CITY     SUNNY     78  56  46 W7        30.02S
FOREST CITY *  PTSUNNY   77  55  47 CALM      30.01S
IOWA FALLS *   PTSUNNY   75  57  53 S5        30.03F
$$

IAZ007>011-017>019-026>030-037>042-050>054-066-100000-
   NORTHEAST IOWA

CITY           SKY/WX    TMP DP  RH WIND       PRES   REMARKS
CEDAR RAPIDS   PTSUNNY   74  55  51 NW7       30.01F
CHARLES CITY * SUNNY     77  55  47 W5        30.01F
CLINTON *      MOSUNNY   75  55  50 N10       30.04S
DECORAH *        N/A    N/A N/A N/A MISG        N/A
DUBUQUE        SUNNY     74  55  51 NW7       30.03S
MONTICELLO *   MOSUNNY   77  55  47 NW5       30.01F
OELWEIN *      MOSUNNY   77 -35   1 NW5       30.02F
WATERLOO       SUNNY     78  53  41 W7        30.00F
$$

IAZ064-065-067-068-078-100000-
   EAST CENTRAL IOWA

CITY           SKY/WX    TMP DP  RH WIND       PRES   REMARKS
DAVENPORT      MOSUNNY   75  55  49 NW7       30.02S
IOWA CITY      MOSUNNY   78  57  48 NW10      30.03S
MT. PLEASANT * MOSUNNY   79  52  38 NW7       30.03S
MUSCATINE *    SUNNY     77  55  47 NW7       30.02S
QUAD CITIES    PTSUNNY   77  54  44 NW9       30.01S
$$

IAZ062-063-075>077-085>089-095>099-100000-
   SOUTHEAST IOWA

CITY           SKY/WX    TMP DP  RH WIND       PRES   REMARKS
BURLINGTON     MOSUNNY   78  55  44 NW6       30.03S
FAIRFIELD *    SUNNY     77  57  50 NW6       30.04S
FORT MADISON * SUNNY     79  55  44 NW3       30.04S
KEOKUK *       SUNNY     77  59  53 N5        30.02F
OSKALOOSA *      N/A     77  57  50 NW6       30.04F
CENTERVILLE *  SUNNY     77  59  53 N6        30.06S
OTTUMWA        SUNNY     78  57  48 NW6       30.02F
WASHINGTON *   SUNNY     77  57  50 NW7       30.03F
$$

ABBREVIATIONS USED IN REMARKS
   TC - TEMPERATURES IN CELSIUS
  WCI - WIND CHILL INDEX
   HX - HEAT INDEX
  VSB - VISIBILITY
$$



USA.gov is the U.S. government's official web portal to all federal, state and local government web resources and services.